DW9636 Weather Reports


Display with metric or nautical units.
time (UTC)temp
F
wind
direction
speed
MPH
gust
MPH
rain 1hr
in
rain 24hr
in
rain mn
in
humidity
%
barometer
mb
20260905041515 44 173 0.0 0.0 0.00 0.00 0.04 88 1014.3
20260905040014 46 173 0.0 0.0 0.00 0.00 0.04 88 1014.2
20260905034513 47 172 0.0 0.0 0.00 0.00 0.04 87 1014.2
20260905033011 48 172 0.0 0.0 0.00 0.00 0.04 87 1014.1
20260905031510 48 172 0.0 0.0 0.00 0.00 0.04 86 1013.9
20260905030009 49 172 0.0 0.0 0.00 0.00 0.04 85 1013.7
20260905024509 49 172 0.0 0.0 0.00 0.00 0.03 83 1013.8
20260905023007 50 190 0.0 0.0 0.00 0.00 0.03 80 1013.7
20260905021505 50 170 0.0 0.0 0.00 0.00 0.03 78 1013.5
20260905020002 51 170 0.0 0.0 0.00 0.00 0.03 76 1013.2
20260905014501 51 123 0.0 0.0 0.00 0.00 0.03 75 1013.0
20260905013000 52 123 0.0 0.0 0.00 0.00 0.03 73 1012.8
20260905011600 53 164 0.0 0.0 0.00 0.00 0.03 69 1012.6
20260905010108 54 182 0.0 0.0 0.00 0.00 0.03 66 1012.3
20260905004559 54 173 0.0 0.0 0.00 0.00 0.03 63 1012.1
20260905003059 54 171 0.0 0.0 0.00 0.00 0.03 63 1011.9
20260905001559 54 176 0.0 0.0 0.00 0.00 0.03 65 1011.9
20260905000105 55 160 0.0 0.0 0.00 0.00 0.03 65 1011.7
20260904234557 56 207 0.0 0.0 0.00 0.00 0.03 61 1011.7
20260904233055 56 198 0.0 0.0 0.00 0.00 0.03 64 1011.8
20260904231554 55 252 0.0 0.0 0.00 0.00 0.03 64 1011.6
20260904230107 53 200 0.0 0.0 0.00 0.00 0.03 72 1011.7
20260904224552 52 200 0.0 0.0 0.00 0.00 0.03 77 1011.9
20260904223059 52 232 0.0 0.0 0.00 0.00 0.03 80 1011.8
20260904221551 52 232 0.0 0.0 0.00 0.00 0.03 82 1011.8
20260904220107 52 232 0.0 0.0 0.00 0.00 0.02 76 1012.2
20260904214550 52 228 0.0 0.0 0.00 0.00 0.01 72 1012.0
20260904213049 52 5 0.0 0.0 0.00 0.00 0.01 77 1012.1
20260904211549 51 188 0.0 0.0 0.00 0.00 0.01 81 1011.9
20260904210050 51 186 0.0 0.0 0.00 0.00 0.01 79 1012.0
20260904204551 53 186 0.0 0.0 0.00 0.00 0.01 71 1011.9
20260904203048 55 191 0.0 0.0 0.00 0.00 0.01 65 1011.5
20260904201552 55 111 0.0 0.0 0.00 0.00 0.01 67 1011.5
20260904200053 54 246 0.0 0.0 0.00 0.00 0.01 68 1011.7
20260904194546 53 195 0.0 0.0 0.00 0.00 0.01 72 1012.0
20260904193035 51 177 1.0 0.0 0.00 0.00 0.01 78 1012.2
20260904191530 49 175 0.0 0.0 0.00 0.00 0.01 80 1012.5
20260904190026 47 126 0.0 0.0 0.00 0.00 0.01 85 1012.7
20260904184533 45 142 0.0 0.0 0.00 0.00 0.01 87 1012.8
20260904183020 44 194 0.0 0.0 0.00 0.00 0.01 90 1013.0
20260904181525 44 194 0.0 0.0 0.00 0.00 0.01 91 1012.9
20260904180022 44 194 0.0 0.0 0.00 0.00 0.01 91 1012.9
20260904174525 43 194 0.0 0.0 0.00 0.00 0.00 90 1012.9
20260904173015 43 188 0.0 0.0 0.00 0.00 0.00 91 1012.7
20260904171514 43 188 0.0 0.0 0.00 0.00 0.00 91 1012.5
20260904170027 43 188 0.0 0.0 0.00 0.00 0.00 90 1012.4
20260904164511 43 188 0.0 0.0 0.00 0.00 0.00 89 1012.3
20260904163009 43 188 0.0 0.0 0.00 0.00 0.00 88 1012.2
20260904161611 43 188 0.0 0.0 0.00 0.00 0.00 89 1011.9
20260904160007 42 188 0.0 0.0 0.00 0.00 0.00 91 1011.8
20260904154506 41 188 0.0 0.0 0.00 0.00 0.00 93 1011.7
20260904153009 40 188 0.0 0.0 0.00 0.00 0.00 93 1011.6
20260904151503 39 188 0.0 0.0 0.00 0.00 0.00 93 1011.4
20260904150002 39 188 0.0 0.0 0.00 0.00 0.00 93 1011.4
20260904144502 38 188 0.0 0.0 0.00 0.00 0.00 93 1011.2
20260904143103 38 188 0.0 0.0 0.00 0.00 0.00 93 1011.3
20260904141558 38 188 0.0 0.0 0.00 0.00 0.00 93 1011.1
20260904134602 37 188 0.0 0.0 0.00 0.00 0.00 93 1010.8
20260904133056 37 188 0.0 0.0 0.00 0.00 0.00 93 1010.6
20260904131554 36 188 0.0 0.0 0.00 0.00 0.00 93 1010.5
20260904130052 35 188 0.0 0.0 0.00 0.00 0.00 93 1010.4
20260904124551 34 188 0.0 0.0 0.00 0.00 0.00 92 1010.3
20260904123049 34 188 0.0 0.0 0.00 0.00 0.00 91 1010.2
20260904121546 35 188 0.0 0.0 0.00 0.00 0.00 91 1010.1
20260904120051 36 188 0.0 0.0 0.00 0.00 0.00 92 1010.0
20260904114541 37 188 0.0 0.0 0.00 0.00 0.00 92 1010.0
20260904113040 37 188 0.0 0.0 0.00 0.00 0.00 91 1009.9
20260904111537 37 188 0.0 0.0 0.00 0.00 0.00 91 1009.8
20260904110037 38 188 0.0 0.0 0.00 0.00 0.00 92 1009.6
20260904104536 38 188 0.0 0.0 0.00 0.00 0.00 91 1009.5
20260904103034 38 188 0.0 0.0 0.00 0.00 0.00 91 1009.6
20260904101533 38 188 0.0 0.0 0.00 0.00 0.00 90 1009.5
20260904100039 38 188 0.0 0.0 0.00 0.00 0.00 89 1009.5
20260904094529 39 188 0.0 0.0 0.00 0.00 0.00 89 1009.5
20260904093050 40 188 0.0 0.0 0.00 0.00 0.00 90 1009.6
20260904091526 40 188 0.0 0.0 0.00 0.00 0.00 90 1009.6
20260904090025 40 188 0.0 0.0 0.00 0.00 0.00 91 1009.6
20260904084524 40 188 0.0 0.0 0.00 0.00 0.00 91 1009.7
20260904083023 40 188 0.0 0.0 0.00 0.00 0.00 91 1009.7
20260904081521 40 188 0.0 0.0 0.00 0.00 0.00 90 1009.5
20260904080019 41 188 0.0 0.0 0.00 0.00 0.00 89 1009.2
20260904074517 41 188 0.0 0.0 0.00 0.00 0.00 89 1009.1
20260904073034 42 188 0.0 0.0 0.00 0.00 0.00 88 1008.9
20260904071512 42 188 0.0 0.0 0.00 0.00 0.00 87 1009.0
20260904070009 44 188 0.0 0.0 0.00 0.00 0.00 86 1008.9
20260904064516 44 188 0.0 0.0 0.00 0.00 0.00 86 1008.8
20260904063007 44 188 0.0 0.0 0.00 0.00 0.00 85 1008.9
20260904061510 45 188 0.0 0.0 0.00 0.00 0.00 84 1008.9
20260904060008 45 188 0.0 0.0 0.00 0.00 0.00 85 1009.0
20260904054509 45 188 0.0 0.0 0.00 0.00 0.00 84 1009.0
20260904053005 45 188 0.0 0.0 0.00 0.00 0.00 83 1009.0
20260904051508 45 188 0.0 0.0 0.00 0.00 0.00 83 1009.1
20260904050004 45 188 0.0 0.0 0.00 0.00 0.00 82 1009.2
20260904044507 46 188 0.0 0.0 0.00 0.00 0.00 81 1009.4
20260904043003 46 188 0.0 0.0 0.00 0.00 0.00 80 1009.3